Regional Weather Roundup
Issued by NWS Green Bay, WI

Home | Current Version | Previous Version | Graphics & Text | Print | Product List | Glossary Off
Versions: 1 2 3 4 5 6 7 8 9 10 11 12 13 14 15 16 17 18 19 20 21 22 23 24 25 26 27 28 29 30 31 32 33 34 35 36 37 38 39 40 41 42 43 44 45 46 47 48 49 50

000
ASUS43 KGRB 032359
RWRGRB

NORTH-CENTRAL AND NORTHEAST WISCONSIN REGIONAL WEATHER ROUNDUP
NATIONAL WEATHER SERVICE GREEN BAY WI
600 PM CST TUE MAR 03 2015

WIZ005-009-010>012-018-019-040100-
NORTH CENTRAL WISCONSIN

CITY           SKY/WX    TMP DP  RH WIND       PRES   REMARKS
IRONWOOD       CLOUDY    21  12  68 W21G28    29.57R WCI   6
MANITOWISH WTR NOT AVBL
ARBOR VITAE    NOT AVBL
EAGLE RIVER    NOT AVBL
LAND O LAKES   NOT AVBL
RHINELANDER    LGT SNOW  24  18  77 W12       29.57R
PHILLIPS       MOCLDY    23  18  80 W8G18     29.60R
ANTIGO         NOT AVBL
TOMAHAWK       NOT AVBL
MERRILL        NOT AVBL
$$

WIZ013-073-040100-
NORTHEAST WISCONSIN

CITY           SKY/WX    TMP DP  RH WIND       PRES   REMARKS
IRON MOUNTAIN  CLOUDY    27  17  66 W14       29.52R
MARINETTE      CLOUDY    28  18  64 W6        29.58R
$$

WIZ017-030-035>037-045-040100-
CENTRAL WISCONSIN

CITY           SKY/WX    TMP DP  RH WIND       PRES   REMARKS
MEDFORD        NOT AVBL
WAUSAU         CLOUDY    26  19  74 W13       29.61R
MOSINEE        CLOUDY    27  21  80 W13       29.63R
MARSHFIELD     CLOUDY    28  20  71 W14       29.65R
WISC RAPIDS    CLOUDY    28  19  69 W8        29.68R
STEVENS POINT  NOT AVBL
WAUPACA        NOT AVBL
SHAWANO        NOT AVBL
CLINTONVILLE   CLOUDY    30  19  64 W8G17     29.64R
$$

WIZ038-039-048-051-040100-
FOX VALLEY

CITY           SKY/WX    TMP DP  RH WIND       PRES   REMARKS
NWS GREEN BAY  CLOUDY    28  21  75 W12       29.63R
APPLETON       CLOUDY    27  19  74 W12G17    29.64R
OSHKOSH        CLOUDY    29  21  72 W8        29.65R
FOND DU LAC    CLOUDY    29  21  72 W10       29.67R
$$

WIZ022-050-052-040100-
EAST CENTRAL WISCONSIN

CITY           SKY/WX    TMP DP  RH WIND       PRES   REMARKS
STURGEON BAY   CLOUDY    27  19  74 W9        29.61R
MANITOWOC      NOT AVBL
SHEBOYGAN      CLOUDY    28  20  71 W15       29.65R
$$

LMZ563-521-522-541>543-040100-
LAKESHORE

STATION/POSITION TIME  TEMP    WIND        PRES    VSBY  WAVE
                       AIR SEA DIR/SP/G                  HT/PER
                 (UTC) (F)     (DEG/KT/KT) (MB)    (MI)  (FT/S)
SHEBOYGAN LKSHOR 2300   29     280/  5/  6 1004.3R
KEWAUNEE LKSHORE 2300   28     280/ 11/ 17 1002.1R
NORTHPORT PIER   2300   28     280/  7/ 11 1000.0S
SISTER BAY LKSHO 2300   23     280/  8/  8   N/A
CHAMBERS ISLAND  2300   28     230/  4/  8 1000.7R
MENOMINEE LKSHOR 2300   29     290/  8     1002.2R
$$



USA.gov is the U.S. government's official web portal to all federal, state and local government web resources and services.